TimeMDT,TemperatureF,Dew PointF,Humidity,Sea Level PressureIn,VisibilityMPH,Wind Direction,Wind SpeedMPH,Gust SpeedMPH,PrecipitationIn,Events,Conditions,WindDirDegrees,DateUTC
12:51 AM,19.9,10.9,68,30.59,-9999.0,SE,3.5,-,N/A,,Unknown,140,2013-05-02 06:51:00
1:51 AM,19.9,10.9,68,30.61,-9999.0,Calm,Calm,-,N/A,,Unknown,0,2013-05-02 07:51:00
2:51 AM,17.1,10.0,74,30.61,-9999.0,Calm,Calm,-,N/A,,Unknown,0,2013-05-02 08:51:00
3:51 AM,17.1,10.0,74,30.60,-9999.0,Calm,Calm,-,N/A,,Unknown,0,2013-05-02 09:51:00
4:51 AM,15.1,10.0,80,30.62,-9999.0,Calm,Calm,-,N/A,,Unknown,0,2013-05-02 10:51:00
5:51 AM,14.0,10.0,84,30.62,-9999.0,Calm,Calm,-,N/A,,Unknown,0,2013-05-02 11:51:00
6:51 AM,14.0,10.0,84,30.63,-9999.0,Calm,Calm,-,N/A,,Unknown,0,2013-05-02 12:51:00
7:51 AM,19.9,12.9,74,30.62,-9999.0,Calm,Calm,-,N/A,,Unknown,0,2013-05-02 13:51:00
8:51 AM,27.0,12.9,56,30.62,-9999.0,Calm,Calm,-,N/A,,Unknown,0,2013-05-02 14:51:00
9:51 AM,34.0,12.9,42,30.62,-9999.0,North,4.6,-,N/A,,Unknown,360,2013-05-02 15:51:00
10:51 AM,41.0,10.9,29,30.56,-9999.0,NNW,4.6,-,N/A,,Unknown,340,2013-05-02 16:51:00
11:51 AM,46.0,6.1,20,30.51,-9999.0,Calm,Calm,-,N/A,,Unknown,0,2013-05-02 17:51:00
12:51 PM,52.0,3.9,14,30.48,-9999.0,Variable,3.5,-,N/A,,Unknown,0,2013-05-02 18:51:00
1:51 PM,55.9,5.0,13,30.45,-9999.0,Variable,6.9,-,N/A,,Unknown,0,2013-05-02 19:51:00
2:51 PM,57.9,3.0,11,30.42,-9999.0,NE,8.1,-,N/A,,Unknown,40,2013-05-02 20:51:00
3:51 PM,57.0,3.9,12,30.40,-9999.0,Variable,6.9,-,N/A,,Unknown,0,2013-05-02 21:51:00
4:51 PM,57.0,5.0,12,30.38,-9999.0,Variable,5.8,-,N/A,,Unknown,0,2013-05-02 22:51:00
5:51 PM,57.0,6.1,13,30.38,-9999.0,WNW,4.6,-,N/A,,Unknown,290,2013-05-02 23:51:00
6:51 PM,55.9,3.9,12,30.37,-9999.0,WSW,3.5,-,N/A,,Unknown,240,2013-05-03 00:51:00
7:51 PM,54.0,6.1,15,30.33,-9999.0,SW,3.5,-,N/A,,Unknown,230,2013-05-03 01:51:00
8:51 PM,37.9,16.0,41,30.36,-9999.0,South,4.6,-,N/A,,Unknown,170,2013-05-03 02:51:00
9:51 PM,34.0,18.0,52,30.36,-9999.0,ESE,4.6,-,N/A,,Unknown,120,2013-05-03 03:51:00
10:51 PM,34.0,17.1,50,30.33,-9999.0,SSE,5.8,-,N/A,,Unknown,160,2013-05-03 04:51:00
11:51 PM,32.0,18.0,56,30.30,-9999.0,South,3.5,-,N/A,,Unknown,180,2013-05-03 05:51:00